Temp
-12 -12 -12 -12 -12 -12 -12 -13 -13 -13 -13 -13 -14 -14 -14 -14 -14 -14 -14 -14 -15 -15 -15 -15 -15 -15 -16 -16 -16 -16 -17 -17 -17 -17 -17 -17 -18 -18 -18 -18 -18 -17 -16 -16 -17 -18 -18 -18 -19 -19 -20 -20 -20 -20 -20 -20 -20 -20 -20 -20 -20 -19 -19
-12 -12 -12 -12 -13 -13 -13 -13 -13 -13 -13 -14 -14 -14 -14 -14 -14 -15 -15 -15 -15 -15 -15 -15 -16 -16 -16 -16 -16 -17 -17 -18 -18 -18 -18 -18 -18 -18 -18 -19 -19 -18 -17 -17 -18 -18 -19 -19 -19 -20 -20 -20 -20 -20 -20 -20 -20 -20 -20 -20 -20 -20 -20
-12 -12 -13 -13 -13 -13 -13 -13 -13 -14 -14 -14 -14 -14 -14 -15 -15 -15 -15 -15 -15 -16 -16 -16 -16 -16 -17 -17 -17 -17 -18 -18 -18 -19 -19 -19 -19 -19 -19 -19 -19 -19 -19 -18 -18 -19 -19 -19 -20 -20 -21 -21 -21 -21 -21 -20 -20 -20 -20 -20 -20 -20 -20
-13 -13 -13 -13 -13 -13 -13 -14 -14 -14 -14 -14 -14 -15 -15 -15 -15 -15 -15 -16 -16 -16 -16 -16 -17 -17 -17 -17 -18 -18 -18 -19 -19 -19 -19 -19 -19 -20 -19 -20 -20 -20 -20 -19 -19 -19 -20 -20 -20 -21 -21 -21 -21 -21 -21 -21 -21 -21 -21 -21 -21 -20 -20
-13 -13 -13 -13 -14 -14 -14 -14 -14 -14 -14 -15 -15 -15 -15 -15 -15 -16 -16 -16 -16 -16 -16 -17 -17 -17 -18 -18 -18 -18 -19 -19 -19 -20 -20 -20 -20 -20 -20 -20 -20 -20 -21 -20 -20 -20 -20 -21 -21 -21 -21 -21 -21 -21 -21 -21 -21 -21 -21 -21 -21 -21 -21
-13 -14 -14 -14 -14 -14 -14 -14 -14 -14 -15 -15 -15 -15 -15 -16 -16 -16 -16 -16 -16 -17 -17 -17 -17 -18 -18 -18 -19 -19 -19 -20 -20 -20 -20 -20 -20 -20 -21 -21 -21 -21 -21 -21 -21 -21 -21 -21 -22 -22 -22 -22 -22 -21 -21 -21 -21 -21 -21 -21 -21 -21 -21
-14 -14 -14 -14 -14 -14 -14 -15 -15 -15 -15 -15 -16 -16 -16 -16 -16 -16 -16 -16 -17 -17 -17 -17 -18 -18 -18 -19 -19 -20 -20 -20 -20 -20 -20 -20 -21 -21 -21 -21 -21 -21 -22 -22 -22 -22 -22 -22 -22 -22 -22 -22 -22 -22 -22 -22 -22 -21 -21 -22 -22 -22 -22
-14 -14 -14 -15 -15 -15 -15 -15 -15 -15 -16 -16 -16 -16 -16 -16 -16 -16 -17 -17 -17 -17 -17 -18 -18 -18 -19 -19 -20 -20 -21 -21 -21 -21 -21 -21 -21 -21 -21 -21 -21 -22 -22 -22 -22 -22 -22 -22 -22 -22 -22 -22 -22 -22 -22 -23 -22 -22 -21 -22 -22 -22 -22
-15 -15 -15 -15 -15 -15 -15 -15 -16 -16 -16 -16 -16 -17 -17 -17 -17 -17 -17 -17 -17 -18 -18 -18 -19 -19 -19 -20 -20 -21 -21 -21 -21 -21 -21 -21 -22 -22 -22 -22 -22 -22 -22 -22 -22 -23 -23 -23 -23 -23 -23 -23 -23 -23 -23 -23 -23 -22 -22 -22 -22 -22 -22
-15 -15 -15 -15 -15 -16 -16 -16 -16 -16 -17 -17 -17 -17 -17 -17 -17 -17 -17 -18 -18 -18 -18 -19 -19 -20 -20 -21 -21 -22 -22 -22 -22 -22 -22 -22 -22 -22 -22 -22 -22 -22 -22 -23 -23 -23 -23 -23 -23 -23 -23 -23 -23 -23 -23 -23 -23 -23 -22 -22 -22 -22 -23
-16 -16 -16 -16 -16 -16 -16 -16 -17 -17 -17 -17 -17 -18 -17 -17 -17 -18 -18 -18 -18 -18 -19 -19 -20 -20 -21 -21 -22 -22 -22 -22 -22 -22 -22 -22 -22 -23 -22 -22 -22 -22 -23 -23 -23 -23 -23 -23 -23 -23 -23 -23 -24 -24 -24 -23 -23 -23 -23 -23 -22 -22 -23
-16 -16 -16 -16 -16 -16 -16 -17 -17 -17 -17 -18 -18 -18 -18 -18 -18 -18 -18 -18 -18 -19 -19 -19 -20 -21 -21 -21 -22 -22 -22 -22 -23 -23 -23 -23 -23 -23 -23 -23 -23 -23 -23 -24 -24 -24 -24 -24 -24 -24 -24 -24 -24 -24 -24 -24 -24 -24 -23 -23 -23 -23 -23
-17 -17 -17 -17 -17 -17 -17 -17 -17 -18 -18 -18 -18 -18 -18 -18 -18 -18 -18 -19 -19 -19 -20 -20 -20 -21 -21 -22 -22 -22 -22 -23 -23 -23 -23 -23 -23 -23 -23 -23 -24 -24 -24 -24 -24 -24 -24 -24 -24 -24 -24 -24 -24 -24 -24 -24 -24 -24 -24 -24 -24 -23 -23
-17 -17 -17 -17 -17 -17 -17 -18 -18 -18 -18 -19 -19 -19 -19 -19 -19 -19 -19 -19 -19 -20 -20 -20 -21 -21 -22 -22 -22 -22 -23 -23 -23 -23 -23 -23 -23 -23 -24 -24 -24 -25 -25 -25 -25 -25 -24 -25 -24 -24 -24 -24 -25 -24 -24 -24 -24 -24 -24 -24 -24 -24 -24
-17 -17 -17 -18 -18 -18 -18 -18 -18 -19 -19 -19 -19 -19 -19 -19 -19 -19 -19 -20 -20 -20 -21 -21 -21 -22 -22 -22 -23 -23 -23 -23 -23 -23 -24 -24 -24 -24 -24 -24 -25 -25 -25 -25 -25 -25 -25 -25 -25 -25 -25 -25 -25 -25 -25 -25 -25 -25 -25 -25 -24 -24 -25
-18 -18 -18 -18 -18 -18 -18 -19 -19 -19 -19 -19 -19 -20 -20 -20 -20 -20 -20 -20 -21 -21 -21 -22 -22 -22 -23 -23 -23 -23 -24 -24 -24 -24 -24 -24 -24 -24 -24 -25 -25 -26 -26 -26 -26 -26 -25 -25 -25 -25 -25 -25 -25 -25 -25 -25 -25 -25 -25 -25 -25 -25 -25
-18 -18 -18 -18 -19 -19 -19 -19 -19 -19 -20 -20 -20 -20 -20 -20 -20 -20 -20 -21 -21 -22 -22 -22 -23 -23 -23 -23 -23 -24 -24 -24 -24 -24 -24 -24 -24 -24 -25 -25 -26 -26 -26 -26 -26 -26 -26 -25 -26 -26 -26 -26 -26 -25 -26 -26 -26 -26 -26 -25 -25 -25 -25
-18 -19 -19 -19 -19 -19 -19 -19 -20 -20 -20 -20 -20 -21 -21 -21 -21 -21 -21 -21 -22 -22 -23 -23 -23 -23 -24 -24 -24 -24 -25 -25 -25 -25 -24 -24 -24 -24 -25 -26 -26 -26 -26 -26 -26 -26 -26 -26 -26 -26 -26 -26 -26 -26 -26 -26 -26 -26 -26 -26 -26 -26 -25
-19 -19 -19 -19 -19 -19 -19 -20 -20 -20 -20 -21 -21 -21 -21 -21 -21 -21 -21 -22 -22 -23 -23 -23 -24 -24 -24 -24 -24 -25 -25 -25 -25 -25 -25 -25 -24 -25 -25 -26 -26 -26 -27 -27 -27 -27 -26 -27 -27 -27 -27 -27 -27 -27 -27 -27 -26 -26 -26 -26 -26 -26 -26
-19 -20 -20 -20 -20 -20 -20 -20 -20 -21 -21 -21 -21 -21 -22 -21 -21 -21 -22 -22 -22 -23 -23 -24 -24 -24 -24 -24 -25 -25 -25 -25 -25 -25 -25 -25 -25 -25 -25 -26 -26 -27 -27 -27 -27 -27 -27 -27 -27 -27 -27 -27 -27 -27 -27 -27 -27 -27 -27 -27 -26 -26 -26
-20 -20 -20 -20 -20 -20 -20 -21 -21 -21 -21 -21 -22 -22 -22 -22 -22 -22 -22 -22 -23 -23 -24 -24 -24 -25 -25 -25 -25 -25 -25 -26 -26 -25 -25 -25 -26 -26 -26 -26 -27 -27 -27 -27 -27 -27 -27 -27 -28 -28 -28 -27 -27 -27 -27 -27 -27 -27 -27 -27 -27 -27 -27
-20 -20 -20 -20 -20 -21 -21 -21 -21 -21 -22 -22 -22 -22 -22 -22 -23 -23 -23 -23 -23 -24 -24 -24 -25 -25 -25 -25 -25 -26 -26 -26 -26 -25 -25 -26 -26 -26 -26 -27 -27 -27 -27 -27 -27 -27 -27 -28 -28 -28 -28 -27 -27 -27 -27 -28 -28 -28 -27 -27 -27 -27 -27
-21 -21 -21 -21 -21 -21 -21 -22 -22 -22 -22 -22 -22 -22 -23 -23 -23 -23 -23 -23 -24 -24 -25 -25 -25 -25 -26 -26 -26 -26 -26 -26 -26 -26 -26 -27 -27 -27 -27 -27 -27 -27 -27 -27 -27 -27 -28 -28 -28 -28 -28 -28 -28 -28 -28 -28 -28 -28 -28 -28 -27 -27 -27
-21 -21 -21 -21 -21 -21 -22 -22 -22 -22 -22 -22 -22 -23 -23 -24 -24 -24 -24 -24 -24 -25 -25 -25 -26 -26 -26 -26 -26 -26 -26 -26 -26 -26 -27 -27 -27 -28 -28 -27 -27 -27 -27 -27 -27 -28 -28 -28 -28 -28 -28 -28 -28 -28 -28 -28 -28 -28 -28 -28 -28 -28 -28
-21 -21 -21 -21 -21 -22 -22 -23 -23 -23 -23 -23 -23 -23 -24 -24 -25 -25 -25 -25 -25 -25 -25 -25 -26 -26 -26 -26 -26 -26 -26 -26 -26 -27 -27 -27 -28 -28 -28 -28 -28 -27 -27 -27 -28 -28 -28 -28 -28 -28 -28 -28 -28 -28 -28 -28 -28 -28 -28 -28 -28 -28 -28
-22 -22 -22 -22 -22 -22 -23 -23 -23 -23 -23 -23 -24 -24 -24 -25 -25 -25 -26 -26 -26 -26 -26 -26 -26 -26 -26 -26 -26 -26 -26 -27 -27 -27 -27 -27 -28 -28 -28 -28 -28 -28 -28 -28 -28 -28 -28 -28 -28 -28 -28 -28 -28 -28 -28 -28 -28 -28 -28 -28 -28 -28 -28
-22 -22 -22 -22 -23 -23 -23 -24 -24 -24 -24 -24 -24 -24 -25 -25 -26 -26 -26 -26 -26 -26 -26 -26 -26 -26 -26 -27 -27 -27 -27 -27 -27 -27 -27 -28 -28 -28 -28 -28 -28 -28 -28 -28 -28 -28 -28 -28 -28 -28 -28 -28 -28 -28 -28 -28 -28 -29 -28 -28 -28 -28 -29
-23 -23 -23 -23 -23 -23 -24 -24 -24 -25 -25 -25 -25 -25 -25 -26 -26 -26 -26 -26 -26 -26 -26 -26 -26 -27 -27 -27 -27 -27 -27 -27 -27 -27 -28 -28 -28 -28 -28 -28 -28 -28 -28 -28 -28 -28 -28 -28 -28 -28 -28 -28 -28 -28 -28 -28 -29 -29 -29 -29 -29 -29 -29
-23 -23 -24 -24 -24 -24 -24 -25 -25 -26 -26 -25 -26 -26 -26 -27 -27 -27 -27 -27 -27 -27 -27 -27 -27 -27 -27 -27 -27 -27 -27 -27 -27 -28 -28 -28 -28 -28 -28 -28 -28 -28 -28 -28 -28 -28 -28 -28 -28 -28 -28 -28 -28 -28 -28 -28 -29 -29 -29 -29 -29 -29 -29
-24 -24 -24 -24 -25 -25 -25 -25 -26 -26 -26 -26 -26 -27 -27 -27 -27 -27 -27 -27 -27 -27 -27 -27 -27 -27 -27 -28 -28 -28 -28 -28 -28 -28 -28 -28 -28 -28 -28 -28 -28 -28 -28 -28 -28 -28 -28 -28 -28 -28 -28 -28 -28 -28 -28 -28 -28 -29 -29 -29 -29 -29 -29
-25 -25 -25 -25 -25 -25 -26 -25 -26 -26 -27 -27 -27 -27 -27 -27 -27 -27 -27 -27 -27 -27 -27 -27 -27 -28 -28 -28 -28 -28 -28 -28 -28 -28 -28 -29 -29 -28 -28 -28 -28 -28 -29 -29 -28 -28 -28 -28 -28 -28 -28 -28 -28 -28 -28 -28 -28 -28 -29 -29 -29 -29 -29
-26 -26 -26 -26 -26 -26 -26 -26 -26 -26 -27 -27 -28 -28 -28 -28 -28 -27 -27 -28 -27 -27 -27 -28 -28 -28 -28 -28 -28 -28 -28 -28 -28 -28 -29 -29 -29 -29 -29 -29 -29 -29 -29 -29 -29 -28 -28 -28 -28 -28 -28 -28 -28 -28 -28 -28 -28 -28 -28 -29 -29 -29 -29
-27 -27 -26 -26 -26 -26 -26 -27 -27 -27 -27 -28 -28 -28 -28 -28 -28 -28 -28 -28 -28 -28 -28 -28 -28 -28 -28 -29 -28 -28 -28 -28 -28 -28 -29 -29 -29 -29 -29 -29 -29 -29 -29 -29 -29 -29 -28 -28 -28 -28 -28 -28 -28 -28 -28 -28 -28 -28 -28 -28 -29 -29 -29
-27 -27 -27 -27 -27 -27 -27 -27 -27 -27 -28 -28 -28 -29 -28 -28 -28 -28 -28 -28 -28 -28 -28 -28 -28 -29 -29 -29 -29 -29 -29 -28 -28 -29 -29 -29 -29 -29 -29 -29 -29 -29 -29 -29 -29 -29 -29 -28 -28 -28 -28 -28 -28 -28 -28 -28 -28 -28 -28 -28 -28 -28 -28
-28 -28 -28 -27 -27 -27 -27 -27 -27 -28 -28 -28 -29 -29 -29 -28 -28 -28 -29 -29 -29 -29 -29 -29 -29 -29 -29 -29 -29 -29 -29 -29 -29 -29 -29 -29 -29 -29 -29 -29 -29 -29 -29 -29 -29 -29 -29 -28 -28 -28 -28 -28 -28 -28 -28 -28 -28 -28 -28 -28 -28 -28 -28
-28 -28 -28 -28 -28 -28 -28 -28 -28 -28 -28 -29 -29 -29 -29 -29 -29 -29 -29 -29 -29 -29 -29 -29 -29 -29 -29 -29 -29 -29 -29 -29 -29 -29 -29 -29 -29 -29 -29 -29 -29 -29 -29 -29 -29 -29 -29 -28 -28 -28 -28 -28 -28 -28 -28 -28 -28 -28 -28 -28 -28 -28 -28
Height
2974 2973 2971 2970 2968 2967 2965 2963 2961 2959 2957 2955 2954 2952 2950 2948 2946 2944 2942 2941 2939 2937 2936 2934 2933 2932 2930 2929 2927 2925 2924 2922 2920 2918 2916 2914 2913 2911 2909 2908 2906 2903 2903 2902 2899 2895 2895 2896 2894 2893 2892 2891 2890 2890 2890 2890 2890 2888 2886 2884 2883 2882 2882
2968 2967 2965 2964 2962 2961 2959 2957 2955 2953 2951 2949 2948 2946 2944 2942 2940 2938 2936 2935 2933 2931 2930 2928 2927 2926 2924 2922 2921 2919 2918 2916 2914 2912 2910 2908 2906 2904 2902 2901 2899 2896 2895 2894 2892 2889 2888 2890 2889 2887 2886 2885 2884 2883 2882 2883 2883 2882 2881 2879 2877 2876 2876
2962 2961 2959 2958 2956 2954 2952 2950 2949 2947 2945 2943 2941 2939 2938 2936 2934 2932 2930 2928 2927 2925 2924 2923 2922 2920 2918 2916 2915 2914 2912 2910 2908 2906 2904 2903 2900 2898 2896 2894 2892 2890 2887 2886 2885 2883 2882 2883 2884 2882 2880 2879 2879 2877 2876 2875 2875 2875 2874 2874 2872 2871 2870
2955 2954 2953 2952 2950 2948 2946 2944 2942 2940 2938 2937 2935 2933 2931 2929 2927 2925 2923 2922 2920 2919 2918 2916 2916 2914 2912 2911 2909 2908 2906 2904 2902 2900 2898 2897 2895 2892 2891 2889 2886 2884 2881 2879 2878 2877 2876 2876 2877 2876 2874 2873 2873 2871 2870 2869 2869 2868 2868 2868 2867 2865 2864
2949 2948 2946 2945 2944 2942 2940 2938 2936 2933 2932 2930 2928 2927 2925 2922 2920 2918 2917 2915 2914 2913 2911 2910 2909 2908 2906 2904 2903 2901 2900 2898 2896 2895 2893 2891 2889 2887 2885 2883 2881 2878 2876 2873 2871 2871 2870 2870 2870 2869 2868 2867 2866 2865 2864 2863 2863 2862 2861 2861 2861 2860 2859
2942 2941 2940 2939 2937 2936 2934 2931 2929 2927 2925 2923 2922 2920 2918 2916 2914 2912 2910 2909 2908 2906 2905 2904 2903 2901 2900 2898 2897 2895 2894 2892 2890 2888 2887 2885 2883 2881 2879 2877 2875 2873 2871 2868 2866 2865 2864 2864 2864 2863 2862 2862 2860 2859 2857 2857 2857 2856 2855 2855 2855 2855 2854
2936 2934 2933 2932 2931 2929 2927 2925 2922 2920 2918 2917 2915 2913 2911 2909 2907 2905 2904 2902 2901 2900 2899 2898 2896 2895 2893 2892 2890 2889 2887 2885 2884 2882 2880 2879 2877 2875 2873 2871 2869 2867 2865 2863 2861 2859 2858 2858 2858 2857 2856 2856 2854 2853 2852 2850 2849 2850 2850 2849 2848 2849 2848
2929 2928 2926 2925 2924 2922 2920 2918 2916 2914 2912 2910 2908 2906 2904 2902 2900 2898 2897 2896 2895 2894 2893 2891 2890 2888 2887 2885 2884 2882 2881 2879 2877 2875 2874 2873 2871 2868 2866 2864 2863 2861 2859 2857 2855 2854 2853 2852 2852 2851 2851 2850 2849 2848 2847 2845 2843 2843 2844 2843 2842 2842 2842
2922 2921 2920 2918 2917 2915 2913 2911 2909 2906 2905 2903 2901 2899 2896 2895 2893 2891 2890 2889 2888 2887 2886 2885 2883 2882 2880 2879 2877 2876 2874 2872 2870 2869 2868 2866 2864 2862 2860 2858 2857 2855 2853 2852 2850 2849 2848 2847 2846 2846 2845 2844 2843 2842 2841 2840 2838 2837 2837 2836 2836 2837 2836
2915 2914 2913 2911 2909 2908 2906 2904 2902 2899 2897 2896 2894 2891 2889 2888 2886 2884 2883 2882 2882 2881 2880 2878 2877 2875 2874 2872 2871 2870 2868 2866 2864 2863 2861 2859 2857 2856 2854 2852 2851 2849 2847 2846 2844 2843 2843 2841 2841 2841 2840 2839 2838 2837 2836 2835 2833 2832 2832 2831 2830 2830 2831
2908 2907 2905 2904 2902 2900 2899 2897 2894 2892 2890 2889 2886 2884 2882 2880 2879 2877 2876 2876 2875 2874 2873 2872 2871 2870 2868 2867 2865 2864 2862 2860 2859 2857 2855 2853 2851 2849 2847 2846 2844 2843 2842 2840 2839 2838 2837 2836 2835 2835 2835 2833 2832 2831 2830 2830 2829 2828 2827 2825 2823 2824 2825
2901 2900 2898 2896 2895 2893 2891 2889 2887 2885 2884 2882 2879 2877 2874 2873 2871 2870 2869 2869 2868 2867 2866 2865 2864 2863 2862 2861 2859 2857 2855 2854 2853 2851 2849 2847 2845 2843 2842 2840 2838 2837 2836 2835 2833 2832 2832 2831 2830 2830 2829 2828 2827 2826 2825 2825 2824 2823 2822 2820 2818 2817 2818
2894 2892 2890 2889 2887 2886 2884 2882 2880 2878 2877 2875 2872 2870 2868 2866 2864 2863 2862 2862 2861 2860 2859 2858 2857 2856 2855 2854 2853 2851 2850 2848 2847 2845 2843 2842 2840 2838 2837 2835 2833 2831 2830 2829 2827 2827 2827 2826 2825 2824 2824 2823 2822 2821 2820 2820 2819 2818 2817 2816 2814 2813 2812
2886 2885 2883 2881 2880 2878 2877 2875 2873 2871 2869 2867 2865 2863 2861 2859 2857 2856 2856 2855 2855 2854 2852 2851 2850 2849 2849 2847 2846 2845 2844 2842 2841 2839 2837 2836 2834 2833 2831 2829 2828 2827 2825 2824 2822 2821 2821 2821 2819 2818 2818 2818 2817 2816 2815 2815 2814 2813 2812 2811 2810 2808 2807
2879 2877 2876 2874 2873 2871 2869 2868 2866 2864 2862 2860 2858 2856 2854 2852 2851 2850 2849 2849 2848 2847 2846 2845 2844 2843 2842 2841 2840 2839 2838 2836 2835 2833 2832 2830 2829 2827 2826 2825 2824 2822 2821 2819 2818 2817 2815 2814 2813 2813 2813 2813 2812 2811 2810 2810 2809 2808 2807 2806 2805 2804 2803
2872 2870 2868 2867 2865 2864 2862 2860 2858 2857 2855 2853 2851 2849 2848 2846 2846 2845 2844 2843 2842 2841 2840 2839 2838 2837 2836 2835 2834 2834 2832 2831 2830 2828 2826 2825 2823 2822 2821 2820 2819 2818 2816 2815 2814 2812 2811 2810 2809 2808 2807 2807 2806 2806 2806 2805 2804 2803 2802 2801 2800 2799 2799
2865 2863 2862 2860 2858 2857 2855 2853 2852 2850 2848 2847 2845 2843 2841 2840 2840 2839 2838 2837 2836 2835 2834 2833 2833 2832 2830 2829 2828 2828 2827 2825 2824 2822 2820 2819 2818 2817 2816 2816 2815 2813 2812 2810 2809 2808 2807 2806 2805 2804 2803 2802 2801 2801 2801 2800 2799 2798 2797 2796 2795 2794 2794
2858 2856 2855 2853 2851 2849 2848 2846 2845 2843 2842 2840 2839 2837 2835 2834 2833 2832 2832 2831 2830 2830 2829 2828 2827 2826 2824 2823 2823 2822 2821 2820 2818 2816 2814 2813 2812 2812 2812 2812 2811 2809 2807 2806 2805 2804 2803 2802 2801 2800 2799 2798 2796 2796 2796 2795 2794 2794 2792 2791 2790 2788 2788
2851 2850 2848 2846 2844 2842 2841 2840 2838 2837 2835 2834 2832 2831 2829 2828 2827 2826 2826 2825 2824 2824 2823 2822 2821 2820 2819 2818 2817 2817 2816 2814 2813 2810 2808 2807 2807 2806 2807 2807 2807 2805 2804 2803 2801 2800 2799 2798 2797 2796 2795 2793 2792 2791 2791 2790 2790 2789 2787 2786 2785 2784 2782
2844 2843 2841 2839 2838 2836 2834 2833 2831 2830 2828 2827 2826 2825 2823 2822 2821 2820 2820 2819 2818 2818 2817 2817 2816 2815 2814 2813 2812 2811 2810 2810 2808 2804 2802 2802 2801 2801 2802 2803 2801 2800 2800 2799 2798 2797 2795 2794 2793 2792 2791 2790 2788 2787 2787 2786 2785 2784 2782 2781 2780 2779 2777
2837 2836 2834 2832 2831 2829 2828 2826 2825 2823 2822 2820 2820 2819 2817 2816 2815 2814 2814 2813 2812 2812 2812 2812 2811 2810 2809 2808 2807 2806 2805 2805 2802 2799 2797 2797 2796 2795 2797 2798 2796 2795 2795 2794 2794 2793 2792 2790 2789 2787 2786 2785 2785 2784 2783 2782 2781 2779 2778 2776 2775 2774 2773
2830 2829 2827 2826 2824 2823 2821 2819 2818 2816 2815 2814 2814 2813 2811 2810 2809 2808 2807 2807 2806 2807 2807 2807 2806 2805 2804 2803 2802 2801 2800 2799 2797 2795 2794 2793 2791 2791 2792 2792 2791 2791 2790 2790 2789 2788 2787 2786 2784 2783 2782 2781 2780 2780 2779 2778 2777 2775 2774 2772 2771 2769 2768
2823 2822 2820 2819 2817 2816 2814 2813 2811 2810 2809 2808 2807 2806 2805 2804 2803 2802 2801 2801 2801 2802 2802 2802 2801 2800 2799 2798 2797 2796 2795 2794 2792 2791 2790 2789 2787 2787 2787 2787 2787 2786 2786 2786 2785 2784 2783 2782 2780 2779 2778 2777 2776 2775 2774 2773 2772 2771 2769 2768 2767 2765 2764
2816 2814 2813 2812 2811 2809 2808 2806 2804 2803 2802 2801 2801 2800 2799 2798 2797 2796 2796 2795 2795 2796 2796 2796 2796 2795 2794 2793 2793 2792 2790 2789 2788 2787 2785 2784 2784 2783 2782 2782 2782 2782 2782 2781 2781 2780 2779 2778 2776 2775 2774 2774 2772 2771 2770 2769 2768 2766 2765 2764 2763 2761 2760
2809 2807 2806 2805 2804 2803 2801 2799 2797 2796 2796 2795 2794 2793 2793 2792 2791 2791 2790 2790 2790 2790 2790 2790 2790 2790 2789 2788 2788 2787 2786 2785 2784 2782 2781 2780 2780 2779 2779 2778 2778 2778 2777 2777 2776 2775 2775 2774 2772 2771 2770 2770 2769 2767 2766 2765 2764 2762 2761 2760 2759 2758 2756
2802 2800 2799 2798 2797 2796 2794 2792 2791 2790 2789 2788 2787 2787 2786 2786 2786 2786 2785 2785 2785 2785 2785 2785 2784 2784 2784 2784 2783 2782 2781 2780 2779 2778 2777 2776 2776 2775 2775 2774 2774 2774 2773 2773 2772 2772 2771 2769 2768 2767 2767 2766 2765 2764 2763 2762 2761 2759 2757 2756 2756 2754 2752
2795 2793 2792 2791 2790 2788 2787 2786 2785 2784 2783 2782 2781 2780 2780 2780 2780 2780 2780 2780 2780 2780 2780 2779 2779 2779 2778 2778 2778 2778 2777 2775 2774 2774 2773 2772 2772 2771 2771 2771 2770 2770 2769 2769 2768 2768 2767 2766 2765 2764 2763 2762 2761 2760 2759 2759 2758 2756 2754 2753 2752 2751 2749
2788 2787 2785 2784 2783 2781 2780 2780 2779 2778 2777 2776 2775 2775 2774 2774 2775 2775 2775 2775 2775 2774 2774 2774 2774 2774 2774 2773 2773 2772 2772 2771 2770 2769 2768 2768 2768 2767 2767 2767 2767 2766 2766 2765 2764 2764 2763 2762 2762 2761 2760 2759 2759 2758 2757 2756 2755 2754 2752 2750 2749 2748 2746
2781 2780 2778 2777 2776 2775 2774 2773 2773 2771 2770 2770 2769 2769 2769 2769 2769 2769 2770 2770 2769 2769 2769 2769 2769 2769 2769 2768 2768 2767 2767 2766 2765 2765 2764 2764 2764 2763 2763 2763 2763 2762 2762 2761 2761 2760 2760 2759 2759 2758 2758 2757 2756 2755 2754 2754 2752 2751 2750 2748 2746 2745 2744
2774 2773 2771 2771 2770 2768 2767 2767 2766 2765 2764 2764 2764 2764 2764 2764 2764 2765 2764 2764 2764 2764 2764 2765 2765 2764 2764 2764 2763 2762 2762 2761 2761 2760 2760 2760 2760 2759 2759 2759 2759 2759 2758 2758 2757 2757 2757 2756 2756 2755 2755 2754 2754 2753 2752 2751 2750 2749 2747 2746 2744 2743 2741
2767 2766 2765 2764 2764 2762 2761 2761 2760 2760 2759 2759 2759 2759 2759 2759 2760 2760 2760 2759 2759 2759 2759 2760 2760 2760 2760 2759 2758 2758 2758 2757 2756 2756 2756 2756 2756 2756 2756 2756 2756 2755 2755 2754 2754 2754 2754 2754 2753 2753 2752 2752 2751 2750 2750 2749 2748 2746 2745 2743 2742 2741 2740
2761 2760 2759 2758 2758 2757 2756 2755 2754 2754 2754 2754 2755 2754 2754 2754 2755 2755 2755 2754 2754 2754 2755 2755 2755 2755 2755 2754 2754 2754 2754 2753 2752 2752 2752 2752 2752 2752 2752 2752 2752 2752 2752 2751 2751 2751 2751 2751 2751 2750 2750 2749 2749 2748 2747 2746 2745 2744 2743 2741 2740 2739 2738
2756 2755 2753 2752 2752 2751 2750 2750 2749 2749 2749 2750 2750 2750 2750 2750 2750 2750 2750 2750 2749 2749 2750 2751 2751 2750 2750 2749 2749 2749 2749 2749 2748 2748 2748 2748 2749 2749 2749 2749 2749 2749 2748 2748 2748 2748 2748 2748 2748 2748 2747 2747 2746 2745 2745 2744 2743 2742 2741 2740 2738 2737 2736
2751 2749 2748 2747 2746 2746 2745 2745 2744 2744 2745 2745 2746 2746 2745 2745 2745 2745 2746 2746 2746 2745 2746 2746 2746 2746 2746 2745 2745 2745 2745 2744 2744 2744 2744 2745 2745 2745 2745 2746 2746 2746 2745 2746 2746 2746 2746 2746 2746 2745 2745 2744 2744 2743 2742 2741 2741 2740 2739 2738 2737 2736 2735
2746 2744 2743 2742 2741 2741 2740 2740 2739 2739 2739 2740 2741 2741 2741 2741 2741 2741 2742 2742 2742 2741 2741 2741 2742 2742 2742 2741 2741 2741 2741 2741 2741 2741 2741 2741 2742 2742 2742 2742 2742 2743 2743 2743 2743 2743 2744 2744 2743 2743 2742 2742 2741 2741 2740 2740 2739 2738 2737 2736 2736 2735 2734
2741 2739 2738 2737 2736 2736 2735 2735 2734 2734 2735 2735 2736 2737 2736 2736 2737 2737 2737 2737 2738 2738 2737 2737 2737 2738 2738 2737 2737 2737 2737 2737 2737 2737 2738 2738 2738 2739 2739 2739 2739 2740 2740 2740 2741 2741 2741 2741 2741 2741 2740 2740 2739 2739 2738 2738 2738 2737 2736 2735 2734 2733 2733
Wind_Speed
48 48 48 47 47 47 47 48 48 48 48 48 48 48 48 48 48 48 48 48 48 48 48 48 48 48 48 47 48 48 48 47 48 49 49 50 50 50 50 50 50 52 53 53 54 54 53 51 50 49 47 46 45 44 43 42 41 41 43 44 45 45 44
48 48 48 48 48 48 49 49 49 49 49 49 49 48 48 48 48 48 48 48 48 48 48 48 48 48 48 48 48 48 48 47 48 48 49 49 50 51 51 50 51 52 54 54 54 54 53 50 48 48 46 45 44 44 44 43 42 41 41 42 43 44 43
48 48 49 49 50 50 50 51 51 51 51 50 50 49 49 48 48 48 48 48 48 48 48 48 47 47 47 48 48 48 47 47 47 48 49 49 49 50 50 50 51 52 54 55 54 53 53 50 48 46 45 44 43 43 44 44 43 42 41 40 41 42 41
47 48 49 50 51 52 52 52 52 52 52 51 50 50 49 49 49 49 49 49 49 48 48 48 47 47 47 47 48 47 47 46 47 47 48 49 49 49 50 50 51 52 53 54 54 53 52 50 47 46 44 43 42 43 44 44 43 43 41 39 39 39 40
48 49 50 52 53 54 54 54 54 54 53 52 51 50 50 49 49 49 49 49 49 48 48 48 47 46 46 47 47 47 46 46 47 47 48 49 49 49 49 49 50 50 51 52 53 52 50 49 46 45 43 42 42 43 43 43 43 42 41 39 37 37 38
48 49 51 53 54 55 55 55 55 55 54 52 51 51 50 50 50 50 50 49 49 48 48 47 47 46 46 46 47 46 46 46 47 47 48 48 48 48 48 48 48 49 50 50 50 50 49 47 45 44 42 42 42 43 44 43 42 41 40 39 37 36 36
49 51 53 54 56 57 57 56 56 55 54 53 52 51 51 51 51 50 50 49 49 48 47 47 46 46 46 46 46 46 46 46 47 48 48 48 47 47 47 47 47 48 48 48 48 47 46 45 44 43 42 42 43 43 44 44 43 41 39 39 38 36 35
50 52 54 55 57 58 58 57 57 55 54 53 52 51 51 51 51 51 50 49 48 47 47 46 46 46 46 46 45 45 45 46 47 48 48 47 47 47 47 47 47 47 47 47 46 45 44 43 43 42 42 42 43 43 42 43 43 42 40 39 38 37 36
52 53 55 56 58 59 59 58 57 55 54 53 52 52 52 52 51 51 50 49 48 47 46 46 45 45 45 45 44 44 45 46 47 48 47 47 47 47 47 47 47 47 46 45 44 43 42 42 42 42 42 42 42 41 41 41 42 42 40 40 39 37 36
54 55 56 57 58 59 59 58 56 55 54 53 52 52 52 52 51 50 49 48 47 46 46 45 44 44 44 44 43 43 44 46 46 46 46 47 47 47 47 46 46 46 45 44 43 41 41 42 42 41 41 41 40 40 40 40 41 41 40 40 40 39 36
55 56 56 58 59 59 58 57 56 55 54 53 53 53 53 52 51 50 49 48 47 46 45 44 43 42 42 42 42 42 44 45 44 45 45 46 46 47 47 46 46 45 44 42 41 41 40 41 41 40 40 39 39 39 40 40 40 39 39 40 41 40 37
56 56 57 58 59 58 57 57 56 55 54 53 52 52 52 52 51 50 49 47 46 45 44 44 43 42 41 41 41 43 44 43 43 44 45 45 45 46 46 46 45 44 42 41 40 40 40 40 40 40 38 38 38 39 39 38 38 37 38 39 40 40 38
56 57 58 58 58 57 57 56 55 54 53 52 52 51 51 51 50 50 48 47 46 45 45 44 43 42 41 41 41 43 43 42 43 44 44 45 45 45 45 44 43 41 41 40 40 40 39 38 39 39 38 37 38 38 38 37 37 36 37 38 38 39 38
57 57 57 57 57 57 56 56 54 53 52 51 51 50 50 50 50 49 48 47 46 45 44 44 43 42 41 41 42 42 42 42 43 44 44 44 44 44 43 42 40 39 38 38 39 39 38 38 38 39 38 37 36 37 37 37 36 36 36 36 36 37 36
56 56 56 56 56 56 56 54 53 52 51 50 50 49 49 49 49 48 47 46 45 45 44 43 42 41 41 41 41 41 41 41 42 43 44 44 43 43 41 39 37 36 36 36 37 37 38 38 39 39 38 37 36 36 36 36 36 36 35 35 35 35 35
55 55 55 56 56 55 54 53 52 51 50 49 49 49 48 48 47 47 46 46 45 44 43 42 41 41 41 41 41 40 40 41 42 42 43 43 42 41 39 36 34 34 35 35 35 35 37 38 38 38 37 37 37 37 36 35 35 35 35 34 35 34 33
54 55 55 55 54 53 53 51 50 49 49 48 48 48 48 47 47 46 46 45 44 43 42 41 40 40 40 41 41 40 39 40 41 42 42 42 40 38 36 33 32 32 33 34 34 35 36 37 37 37 37 37 38 37 36 35 35 34 34 34 34 34 33
54 54 53 53 52 52 51 50 49 48 48 47 47 47 47 47 46 46 45 44 43 42 40 40 39 39 39 40 40 39 39 39 40 41 42 42 39 37 34 31 29 31 32 32 33 34 35 36 36 36 37 37 37 37 36 35 35 34 34 34 34 35 35
53 52 52 51 51 50 50 49 48 47 47 46 46 46 46 46 46 45 44 43 42 40 39 38 38 38 38 39 39 38 38 38 39 41 42 41 38 36 32 29 29 29 29 30 32 34 35 35 35 35 36 37 37 38 37 36 35 34 34 35 34 35 36
51 51 50 50 49 49 49 48 47 46 46 46 45 45 45 45 45 45 44 42 41 40 38 37 37 37 37 38 38 37 37 36 37 40 42 40 38 35 31 28 28 29 29 29 30 32 33 35 35 35 35 36 37 37 37 36 35 35 36 36 36 35 36
50 50 49 49 48 48 47 46 45 45 45 45 44 44 44 44 44 44 43 42 41 39 37 36 36 36 36 36 36 37 36 35 36 39 40 39 37 35 30 28 28 29 29 29 30 30 32 33 34 35 35 36 36 36 36 35 35 35 36 36 36 35 35
49 48 48 48 47 46 45 45 45 45 45 44 44 43 43 43 43 42 42 42 40 38 36 35 35 35 35 35 35 35 35 35 36 38 37 36 36 34 31 29 29 29 29 30 30 30 31 32 34 35 35 35 35 35 34 34 34 34 35 35 35 34 34
48 48 47 46 46 45 44 44 45 44 44 44 43 42 42 42 41 41 41 41 39 37 35 34 33 33 34 35 34 34 35 35 35 35 34 34 34 34 32 31 31 30 30 30 30 30 30 31 32 34 34 33 34 34 33 33 33 33 33 33 33 33 33
47 47 46 46 45 44 44 44 44 44 44 43 43 42 41 40 40 39 39 39 38 36 34 33 33 33 33 33 33 33 34 34 34 33 33 33 33 32 32 32 31 31 30 30 29 29 29 30 31 32 32 31 32 32 31 31 31 31 31 31 30 30 30
46 46 46 46 45 44 43 43 44 44 43 43 42 41 40 39 38 37 37 37 36 35 34 33 33 33 33 32 32 32 33 33 33 32 32 32 32 32 32 31 31 31 30 29 29 28 28 29 30 30 30 29 29 29 28 28 28 28 28 28 27 27 27
46 46 46 46 45 44 43 43 43 43 42 41 41 41 40 38 37 35 35 35 35 34 34 33 33 33 32 31 30 31 31 31 32 32 31 31 31 31 31 30 30 29 29 28 27 27 27 28 28 28 27 27 26 25 25 24 24 24 26 26 24 24 25
47 47 46 45 45 44 43 43 42 41 40 40 40 40 39 37 35 34 34 34 34 34 33 33 32 32 31 30 29 30 30 31 31 31 31 31 31 30 30 29 28 28 28 27 26 26 26 26 26 25 25 23 22 21 21 20 20 21 22 23 22 22 23
47 46 45 45 44 44 43 42 40 39 38 38 39 38 37 35 34 33 33 33 33 33 33 32 31 31 30 30 29 29 29 30 30 30 30 30 30 29 29 28 27 27 27 26 26 25 25 25 24 23 21 19 19 18 18 18 18 19 20 20 20 20 20
46 45 44 44 43 42 41 40 38 37 37 37 36 35 34 34 33 33 33 33 33 33 32 30 30 29 29 29 29 29 29 29 29 30 29 29 29 28 28 27 26 26 25 25 25 24 23 23 21 19 18 17 17 17 17 17 18 18 18 19 19 19 19
44 43 42 42 40 40 39 38 36 35 35 35 33 33 33 33 32 32 32 32 32 32 31 29 29 28 28 28 28 28 28 29 29 29 28 28 28 27 27 26 25 24 24 24 24 23 21 20 18 17 16 16 16 17 17 17 17 18 18 18 18 18 19
41 40 39 39 38 38 38 37 35 34 33 32 31 31 32 32 31 31 31 31 32 31 30 29 28 28 27 27 28 28 28 28 29 28 28 27 27 26 26 24 23 23 23 23 22 21 19 18 17 16 16 16 17 17 17 17 17 17 17 18 17 17 18
37 37 37 37 36 36 36 35 34 33 32 30 29 30 31 31 31 30 30 30 31 31 30 28 28 27 26 27 27 27 27 28 28 27 27 26 26 25 25 23 22 22 22 21 20 19 18 18 17 16 16 16 16 17 17 17 17 17 17 17 17 17 17
35 35 36 36 35 35 34 34 33 32 30 28 28 29 30 30 31 30 29 29 30 31 29 27 27 27 26 27 27 27 27 28 28 27 26 25 24 24 24 23 21 21 21 20 18 17 17 17 17 16 16 16 16 16 16 16 16 16 16 16 16 16 16
34 34 35 35 35 34 33 33 32 31 29 28 27 28 29 30 30 30 29 29 29 30 29 27 26 26 26 27 28 27 27 27 27 27 26 25 24 23 23 22 21 20 20 18 17 17 17 17 16 16 15 15 15 15 14 14 14 14 15 15 14 14 14
33 33 34 35 34 33 33 32 32 31 30 28 27 27 28 29 30 30 29 28 28 29 29 28 27 26 26 27 28 27 27 27 27 27 26 25 24 23 22 21 20 19 19 18 17 17 17 16 16 15 14 14 14 13 13 13 13 13 13 13 13 13 12
33 32 33 33 33 33 32 32 32 32 30 29 27 27 28 29 29 29 29 29 28 28 28 28 27 26 26 27 27 27 27 27 27 26 25 24 23 22 21 21 20 19 18 17 16 16 16 16 15 14 13 13 12 12 11 11 11 11 11 11 11 11 11
Wind_Direction
295 295 296 296 297 298 300 300 300 300 299 297 296 296 296 295 295 294 294 293 292 291 290 290 291 291 291 290 291 291 292 292 293 293 294 293 293 293 294 294 293 293 293 293 291 291 290 291 291 290 291 290 289 288 287 285 284 283 282 280 280 279 278
294 295 296 296 297 299 300 301 301 300 299 297 296 296 296 295 294 293 292 291 290 289 289 289 289 289 289 289 290 290 291 292 292 292 293 293 294 294 295 295 294 294 293 292 291 291 290 290 291 291 290 289 289 288 287 286 285 283 281 280 280 279 279
294 295 296 297 298 299 301 302 301 300 299 297 296 296 296 295 294 292 291 290 289 288 288 288 288 288 288 288 289 290 290 291 291 291 292 292 293 294 294 294 294 293 292 292 291 291 291 291 291 290 289 288 287 287 287 286 286 284 283 282 281 280 280
294 296 296 297 298 300 301 302 301 300 298 297 296 296 295 294 293 291 290 289 288 288 288 288 288 287 287 287 288 288 289 289 290 290 291 292 292 293 293 293 293 292 292 292 291 291 291 291 290 289 288 287 286 285 285 285 286 286 286 284 283 281 280
294 295 296 298 298 300 301 301 301 300 298 296 296 295 294 293 291 290 289 288 288 288 288 288 287 287 286 287 287 287 288 288 289 289 290 291 292 292 293 292 292 292 291 291 291 291 290 290 289 289 287 286 285 284 284 285 285 286 286 285 283 282 282
293 294 296 298 299 299 300 300 300 299 297 296 295 294 293 292 290 289 288 287 287 287 287 287 287 287 286 286 286 287 287 288 288 289 289 290 291 292 292 292 291 291 290 290 290 289 289 289 288 287 286 286 286 285 285 285 285 285 286 286 285 283 282
291 294 296 298 299 299 299 299 298 297 296 295 294 293 292 291 289 288 287 287 287 287 287 287 287 287 286 286 286 287 287 287 288 288 289 291 292 292 292 291 291 290 289 288 288 287 287 287 287 286 286 286 286 286 287 287 286 286 286 286 285 283 282
291 293 295 297 299 299 298 297 297 296 295 294 294 293 291 290 289 288 287 287 287 287 288 287 287 286 286 286 286 286 287 287 287 288 290 292 293 293 292 292 291 289 288 287 286 286 285 285 284 284 285 285 285 286 287 288 288 287 286 285 285 284 283
291 293 295 297 298 298 297 296 296 295 294 294 294 292 291 289 288 287 287 287 287 288 288 287 287 286 286 286 286 287 287 287 288 290 291 292 293 293 292 292 291 289 288 287 286 285 284 283 282 283 284 285 286 287 287 286 286 286 285 285 285 284 284
290 292 295 296 297 297 296 295 295 294 294 294 293 291 290 288 287 286 286 287 287 288 288 287 287 286 286 286 286 286 285 286 288 290 291 292 293 293 292 291 290 288 287 286 285 283 282 281 282 283 285 285 286 286 286 285 285 285 286 285 285 284 283
291 293 294 295 296 295 295 294 294 294 294 293 292 290 289 288 287 286 286 287 287 288 288 287 286 285 284 284 284 284 284 286 288 290 292 293 294 293 293 292 290 288 287 285 284 283 281 282 283 284 285 286 285 284 283 283 284 285 286 285 284 283 283
291 293 294 294 295 294 294 293 293 293 293 292 291 289 288 287 287 287 287 288 289 289 288 287 286 284 284 284 284 283 285 287 289 290 292 293 293 293 292 291 290 288 286 284 283 282 282 283 284 285 284 284 283 282 282 283 284 285 284 284 284 284 285
291 292 293 293 293 293 293 292 292 292 291 290 289 288 287 287 287 288 288 289 290 289 288 288 287 286 285 285 284 284 286 288 289 291 291 292 292 292 291 289 287 286 285 284 282 282 282 284 284 283 282 282 281 282 284 284 284 284 284 283 284 284 285
291 291 292 292 292 291 291 291 291 291 290 289 288 288 287 287 287 288 289 290 290 289 288 288 287 286 286 286 285 286 288 289 290 291 291 292 292 292 290 288 286 284 283 282 282 283 284 284 283 282 282 283 284 284 284 284 284 284 284 283 284 284 285
290 290 291 291 290 290 290 290 290 290 290 289 288 287 287 287 287 288 289 289 289 288 288 287 287 286 286 285 286 287 288 289 290 290 291 291 291 290 289 287 285 283 281 281 282 283 284 283 283 284 285 286 286 285 284 285 286 285 285 285 284 284 286
289 289 290 289 290 290 290 290 290 290 289 288 287 287 286 286 287 287 287 288 288 287 286 286 286 286 285 285 286 287 288 289 289 290 290 290 290 289 288 285 283 281 280 280 280 281 281 282 283 285 286 286 286 286 286 287 286 286 286 286 285 285 286
288 288 288 289 289 289 289 290 290 289 288 287 286 286 285 286 286 286 286 286 286 285 285 284 284 284 284 284 285 287 287 288 289 289 289 289 289 288 286 283 281 279 279 279 279 279 280 281 283 284 285 286 286 287 288 287 287 287 287 287 286 286 286
287 287 288 288 289 289 289 289 289 288 287 286 285 285 285 285 285 285 286 285 284 283 283 283 283 283 283 284 285 287 288 288 289 289 289 289 289 288 284 280 278 277 278 279 279 280 280 281 283 284 285 286 286 287 287 287 287 287 287 287 287 287 286
287 287 288 288 289 289 289 289 288 287 286 285 284 284 284 285 285 285 285 284 283 282 281 281 281 282 282 283 285 286 286 287 288 289 288 289 289 288 284 281 278 277 276 276 276 278 280 281 282 283 284 285 286 286 287 288 289 289 289 288 288 289 288
287 288 288 288 288 288 288 288 287 286 285 284 284 284 284 284 284 284 284 283 282 281 280 280 281 281 282 283 285 285 285 286 288 287 287 289 290 288 286 283 281 278 276 274 274 276 279 281 281 282 282 283 284 285 287 289 290 290 291 290 290 290 290
287 288 288 288 288 288 288 288 286 285 284 284 284 284 283 283 283 283 282 281 280 280 279 280 280 280 281 282 283 283 284 285 284 285 288 291 289 287 286 283 280 278 277 277 278 278 278 279 280 281 281 282 283 284 286 288 289 289 289 290 290 290 290
287 288 287 288 288 288 288 287 285 284 284 284 284 283 282 281 281 281 280 280 279 279 279 279 279 280 280 280 280 281 282 282 283 285 289 288 286 285 284 281 278 278 279 279 280 280 280 279 280 280 281 283 284 285 286 287 287 287 288 288 289 290 290
288 288 288 288 288 288 287 286 284 284 284 283 283 282 281 280 280 279 279 278 278 278 278 277 278 278 278 278 278 279 280 282 284 286 286 284 283 283 282 281 280 280 280 281 281 281 280 279 280 281 283 284 285 286 287 287 287 287 287 287 288 289 290
288 288 288 288 288 287 286 285 284 283 283 283 283 281 280 279 278 277 277 277 277 277 277 276 276 275 275 276 277 278 280 282 284 284 283 280 280 279 279 279 280 280 281 282 282 281 280 280 281 282 283 284 284 286 287 287 287 287 286 287 288 289 290
289 288 288 288 288 287 285 284 283 283 283 283 282 281 279 278 276 275 275 275 275 276 276 275 275 274 274 275 276 277 279 281 282 281 280 278 276 276 276 277 278 279 282 283 283 282 281 281 281 282 282 283 284 285 285 286 286 287 287 287 289 290 290
289 288 288 288 288 287 285 283 283 283 282 282 281 279 278 276 275 274 273 273 273 274 274 275 275 275 275 275 276 277 278 279 279 279 278 276 275 275 276 276 277 280 282 283 282 282 282 281 281 283 283 284 284 284 284 285 286 287 288 289 291 292 291
288 288 288 287 287 286 284 283 283 282 281 280 279 278 277 276 274 272 271 271 272 272 273 274 275 276 277 277 276 276 276 277 278 278 277 276 275 275 276 277 278 280 282 283 283 282 282 282 283 283 283 284 284 284 285 288 289 290 291 293 294 293 292
288 288 287 287 286 285 284 283 283 281 279 278 277 276 275 274 272 271 270 270 271 272 272 274 275 276 278 278 277 275 275 277 277 277 276 275 275 275 276 277 279 281 282 283 283 282 282 283 282 282 281 281 282 284 287 290 292 293 294 295 296 296 296
288 288 287 286 286 285 284 283 282 279 277 277 276 274 273 272 270 270 270 270 271 272 273 275 276 277 277 276 276 275 276 276 277 276 276 275 274 275 276 278 279 281 282 282 282 283 282 282 280 277 276 278 281 285 288 291 293 295 297 298 300 302 301
288 287 287 286 286 285 284 283 281 278 277 276 274 272 270 269 269 269 270 270 271 273 275 276 277 277 276 275 274 275 275 276 276 276 275 275 274 275 276 278 279 280 281 280 281 282 280 277 274 272 274 277 281 283 287 289 292 295 298 300 303 304 303
288 288 287 286 286 284 284 282 280 277 275 273 272 270 269 268 268 268 269 271 272 274 276 278 278 277 276 274 273 273 274 274 275 275 275 274 274 275 276 277 278 279 279 279 279 279 275 271 269 271 274 278 280 283 285 288 290 292 295 299 302 303 303
289 288 287 286 285 284 283 282 280 278 275 272 269 267 267 267 267 267 268 270 272 274 276 278 279 278 276 273 272 272 272 273 274 275 274 272 273 273 274 275 277 277 278 278 277 274 269 267 269 273 276 279 281 283 284 286 289 291 293 297 300 301 302
289 288 287 286 285 284 282 281 279 277 275 271 267 266 266 267 267 268 269 270 272 275 277 278 277 276 274 273 272 271 272 273 274 275 274 273 272 272 273 274 275 275 276 275 273 268 265 267 271 275 278 280 281 282 283 284 287 289 292 295 297 298 300
289 288 286 286 285 284 283 281 279 277 273 269 265 264 265 266 267 268 270 271 273 275 276 276 274 273 272 271 271 271 272 273 274 275 275 275 273 272 272 273 273 273 273 272 268 264 265 269 273 276 279 280 280 281 282 284 286 289 292 293 294 296 298
288 286 285 285 284 284 282 281 279 277 274 270 266 264 264 265 266 268 269 270 271 272 274 274 273 271 270 269 270 270 271 272 273 273 274 274 273 272 271 271 270 270 270 267 262 262 266 270 273 276 278 279 279 279 280 283 287 289 289 290 293 295 298
287 284 283 283 284 283 282 279 277 276 274 272 270 267 265 265 265 266 267 267 269 270 272 273 273 271 269 268 268 268 269 270 271 272 273 272 270 269 268 268 268 268 266 262 259 261 266 270 272 274 275 276 276 277 279 282 284 285 286 289 293 296 299